Regional Weather Roundup
Issued by NWS

Home | Current Version | Previous Version | Text Only | Print | Product List | Glossary On
Versions: 1 2 3 4 5 6 7 8 9 10 11 12 13 14 15 16 17 18 19 20 21 22 23 24 25 26 27 28 29 30 31 32 33 34 35 36 37 38 39 40 41 42 43 44 45 46 47 48 49 50
000
ASUS43 KLMK 010002
RWRKY
KENTUCKY REGIONAL WEATHER ROUNDUP
NATIONAL WEATHER SERVICE LOUISVILLE KY
800 PM EDT THU JUL 31 2014

NOTE "FAIR" INDICATES FEW OR NO CLOUDS BELOW 12,000 FEET
WITH NO SIGNIFICANT WEATHER AND/OR OBSTRUCTIONS TO VISIBILITY.

KYZ001>023-026-027-061>063-070>075-010100-
WESTERN AND SOUTH CENTRAL KENTUCKY

CITY           SKY/WX    TMP DP  RH WIND       PRES   REMARKS
PADUCAH        PTSUNNY   80  65  59 W6        30.06S
HENDERSON      MOSUNNY  N/A N/A N/A MISG        N/A
OWENSBORO      MOSUNNY   81  59  47 CALM      30.06S
HOPKINSVILLE   MOCLDY    80  58  47 SW5       30.05S
BOWLING GREEN  PTCLDY    83  53  35 E5        30.06S
GLASGOW        MOCLDY    81  54  39 E3        30.07S
$$

KYZ024-025-028>034-038-045-046-053-010100-
NORTH CENTRAL KENTUCKY

CITY           SKY/WX    TMP DP  RH WIND       PRES   REMARKS
LOUISVILLE/SDF MOCLDY    81  53  37 SW9       30.06R
LOUISVILLE/LOU PTCLDY    81  52  36 SW6       30.07R
FORT KNOX      NOT AVBL
$$

KYZ035>037-039>044-047>052-055>060-089>105-010100-
NORTHEAST KENTUCKY

CITY           SKY/WX    TMP DP  RH WIND       PRES   REMARKS
LEXINGTON      CLEAR     78  61  55 SW3       30.09S
COVINGTON      MOCLDY    75  60  59 S3        30.08S
FRANKFORT      PTCLDY    78  58  49 W3        30.07S
$$

KYZ054-064>069-076>088-106>120-010100-
SOUTHEAST KENTUCKY

CITY           SKY/WX    TMP DP  RH WIND       PRES   REMARKS
JACKSON        CLEAR     75  56  51 CALM      30.11S
LONDON         CLEAR     77  59  53 NE3       30.11R
SOMERSET       NOT AVBL
MIDDLESBORO    PTCLDY    74  65  74 CALM      30.10S
MONTICELLO     PTCLDY    74  66  75 CALM      30.11R
$$




USA.gov is the U.S. government's official web portal to all federal, state and local government web resources and services.